"Period start","avg(HW err(1)/warn(2) (#))","avg(Visibility (m))","avg(Weather code (#))","avg(Precip intensity (mm/h))","min(HW err(1)/warn(2) (#))","max(HW err(1)/warn(2) (#))","std(HW err(1)/warn(2) (#))","med(HW err(1)/warn(2) (#))","min(Visibility (m))","max(Visibility (m))","std(Visibility (m))","med(Visibility (m))","min(Weather code (#))","max(Weather code (#))","std(Weather code (#))","med(Weather code (#))","min(Precip intensity (mm/h))","max(Precip intensity (mm/h))","std(Precip intensity (mm/h))","med(Precip intensity (mm/h))"
2017-08-14 00:00:00,0,17434,0,0.00,0,0,0,0,15475,20295,1364,17687,0,0,0,0,0.00,0.00,0.00,0.00
2017-08-14 00:10:00,0,15132,0,0.00,0,0,0,0,13909,16818,1003,14942,0,0,0,0,0.00,0.00,0.00,0.00
2017-08-14 00:20:00,0,14731,0,0.00,0,0,0,0,13599,17984,1243,14288,0,0,0,0,0.00,0.00,0.00,0.00
2017-08-14 00:30:00,0,15046,0,0.00,0,0,0,0,13076,19218,1581,14682,0,0,0,0,0.00,0.00,0.00,0.00
2017-08-14 00:40:00,0,15370,0,0.00,0,0,0,0,13700,17454,1125,15217,0,0,0,0,0.00,0.00,0.00,0.00
2017-08-14 00:50:00,0,14486,0,0.00,0,0,0,0,12849,17787,1384,14138,0,0,0,0,0.00,0.00,0.00,0.00
2017-08-14 01:00:00,0,14391,0,0.00,0,0,0,0,13138,15736,836,14498,0,0,0,0,0.00,0.00,0.00,0.00
2017-08-14 01:10:00,0,13652,0,0.00,0,0,0,0,12208,15680,1052,13476,0,0,0,0,0.00,0.00,0.00,0.00
2017-08-14 01:20:00,0,13241,0,0.00,0,0,0,0,12402,14578,694,13108,0,0,0,0,0.00,0.00,0.00,0.00
2017-08-14 01:30:00,0,13040,0,0.00,0,0,0,0,11521,15152,1067,12678,0,0,0,0,0.00,0.00,0.00,0.00
2017-08-14 01:40:00,0,13004,0,0.00,0,0,0,0,11699,14633,1020,12920,0,0,0,0,0.00,0.00,0.00,0.00
2017-08-14 01:50:00,0,12150,0,0.00,0,0,0,0,11191,13471,777,12112,0,0,0,0,0.00,0.00,0.00,0.00
2017-08-14 02:00:00,0,12593,0,0.00,0,0,0,0,11446,15157,1023,12370,0,0,0,0,0.00,0.00,0.00,0.00
2017-08-14 02:10:00,0,12593,0,0.00,0,0,0,0,11196,13469,645,12596,0,0,0,0,0.00,0.00,0.00,0.00
2017-08-14 02:20:00,0,12297,0,0.00,0,0,0,0,11409,13719,662,12279,0,0,0,0,0.00,0.00,0.00,0.00
2017-08-14 02:30:00,0,11876,0,0.00,0,0,0,0,10633,12957,724,11919,0,0,0,0,0.00,0.00,0.00,0.00
2017-08-14 02:40:00,0,13367,0,0.00,0,0,0,0,11924,14539,695,13496,0,0,0,0,0.00,0.00,0.00,0.00
2017-08-14 02:50:00,0,12896,0,0.00,0,0,0,0,11866,16149,1166,12662,0,0,0,0,0.00,0.00,0.00,0.00
2017-08-14 03:00:00,0,12952,0,0.00,0,0,0,0,11937,14444,771,12708,0,0,0,0,0.00,0.00,0.00,0.00
2017-08-14 03:10:00,0,12297,0,0.00,0,0,0,0,11320,13213,625,12234,0,0,0,0,0.00,0.00,0.00,0.00
2017-08-14 03:20:00,0,12834,0,0.00,0,0,0,0,11819,14895,827,12740,0,0,0,0,0.00,0.00,0.00,0.00
2017-08-14 03:30:00,0,13082,0,0.00,0,0,0,0,12351,13933,529,13050,0,0,0,0,0.00,0.00,0.00,0.00
2017-08-14 03:40:00,0,12120,0,0.00,0,0,0,0,10326,14321,1000,12124,0,0,0,0,0.00,0.00,0.00,0.00
2017-08-14 03:50:00,0,11728,0,0.00,0,0,0,0,11406,12412,303,11670,0,0,0,0,0.00,0.00,0.00,0.00
2017-08-14 04:00:00,0,11053,0,0.00,0,0,0,0,10004,11913,658,11100,0,0,0,0,0.00,0.00,0.00,0.00
2017-08-14 04:10:00,0,11274,0,0.00,0,0,0,0,10436,12463,583,11082,0,0,0,0,0.00,0.00,0.00,0.00
2017-08-14 04:20:00,0,11073,0,0.00,0,0,0,0,10125,11943,558,11070,0,0,0,0,0.00,0.00,0.00,0.00
2017-08-14 04:30:00,0,10804,0,0.00,0,0,0,0,10241,11402,419,10878,0,0,0,0,0.00,0.00,0.00,0.00
2017-08-14 04:40:00,0,10599,0,0.00,0,0,0,0,10046,11517,517,10468,0,0,0,0,0.00,0.00,0.00,0.00
2017-08-14 04:50:00,0,10076,0,0.00,0,0,0,0,9099,11049,584,10030,0,0,0,0,0.00,0.00,0.00,0.00
2017-08-14 05:00:00,0,9978,0,0.00,0,0,0,0,9431,10839,406,9890,0,0,0,0,0.00,0.00,0.00,0.00
2017-08-14 05:10:00,0,10134,0,0.00,0,0,0,0,9046,11234,810,9897,0,0,0,0,0.00,0.00,0.00,0.00
2017-08-14 05:20:00,0,10510,0,0.00,0,0,0,0,9787,11380,469,10492,0,0,0,0,0.00,0.00,0.00,0.00
2017-08-14 05:30:00,0,10082,0,0.00,0,0,0,0,9487,10840,445,10052,0,0,0,0,0.00,0.00,0.00,0.00
2017-08-14 05:40:00,0,10191,1,0.00,0,0,0,0,9388,11177,612,10151,0,4,2,0,0.00,0.00,0.00,0.00
2017-08-14 05:50:00,0,10450,4,0.00,0,0,0,0,8928,12434,996,10270,4,4,0,4,0.00,0.00,0.00,0.00
2017-08-14 06:00:00,0,10864,4,0.00,0,0,0,0,10477,11506,341,10736,4,4,0,4,0.00,0.00,0.00,0.00
2017-08-14 06:10:00,0,11873,4,0.00,0,0,0,0,10698,13367,804,11704,0,4,1,4,0.00,0.00,0.00,0.00
2017-08-14 06:20:00,0,13872,0,0.00,0,0,0,0,11736,18155,2002,13381,0,0,0,0,0.00,0.00,0.00,0.00
2017-08-14 06:30:00,0,15201,0,0.00,0,0,0,0,12077,20092,2157,15576,0,0,0,0,0.00,0.00,0.00,0.00
2017-08-14 06:40:00,0,18495,0,0.00,0,0,0,0,14728,22564,2717,18520,0,0,0,0,0.00,0.00,0.00,0.00
2017-08-14 06:50:00,0,28344,0,0.00,0,0,0,0,17639,41249,9432,25292,0,0,0,0,0.00,0.00,0.00,0.00
2017-08-14 07:00:00,0,40223,0,0.00,0,0,0,0,35401,46236,3460,39642,0,0,0,0,0.00,0.00,0.00,0.00
2017-08-14 07:10:00,0,42716,0,0.00,0,0,0,0,39162,49292,3661,41768,0,0,0,0,0.00,0.00,0.00,0.00
2017-08-14 07:20:00,0,49529,0,0.00,0,0,0,0,48654,50000,525,49741,0,0,0,0,0.00,0.00,0.00,0.00
2017-08-14 07:30:00,0,50000,0,0.00,0,0,0,0,50000,50000,0,50000,0,0,0,0,0.00,0.00,0.00,0.00
2017-08-14 07:40:00,0,49930,0,0.00,0,0,0,0,49298,50000,211,50000,0,0,0,0,0.00,0.00,0.00,0.00
2017-08-14 07:50:00,0,50000,0,0.00,0,0,0,0,50000,50000,0,50000,0,0,0,0,0.00,0.00,0.00,0.00
2017-08-14 08:00:00,0,49526,0,0.00,0,0,0,0,47082,50000,891,50000,0,0,0,0,0.00,0.00,0.00,0.00
2017-08-14 08:10:00,0,49659,0,0.00,0,0,0,0,47031,50000,886,50000,0,0,0,0,0.00,0.00,0.00,0.00
2017-08-14 08:20:00,0,50000,0,0.00,0,0,0,0,50000,50000,0,50000,0,0,0,0,0.00,0.00,0.00,0.00
2017-08-14 08:30:00,0,50000,0,0.00,0,0,0,0,50000,50000,0,50000,0,0,0,0,0.00,0.00,0.00,0.00
2017-08-14 08:40:00,0,50000,0,0.00,0,0,0,0,50000,50000,0,50000,0,0,0,0,0.00,0.00,0.00,0.00
2017-08-14 08:50:00,0,49384,0,0.00,0,0,0,0,45058,50000,1487,50000,0,0,0,0,0.00,0.00,0.00,0.00
2017-08-14 09:00:00,0,49848,0,0.00,0,0,0,0,48483,50000,455,50000,0,0,0,0,0.00,0.00,0.00,0.00
2017-08-14 09:10:00,0,49894,0,0.00,0,0,0,0,48942,50000,317,50000,0,0,0,0,0.00,0.00,0.00,0.00
2017-08-14 09:20:00,0,50000,0,0.00,0,0,0,0,50000,50000,0,50000,0,0,0,0,0.00,0.00,0.00,0.00
2017-08-14 09:30:00,0,50000,0,0.00,0,0,0,0,50000,50000,0,50000,0,0,0,0,0.00,0.00,0.00,0.00
2017-08-14 09:40:00,0,49682,0,0.00,0,0,0,0,47679,50000,715,50000,0,0,0,0,0.00,0.00,0.00,0.00
2017-08-14 09:50:00,0,50000,0,0.00,0,0,0,0,50000,50000,0,50000,0,0,0,0,0.00,0.00,0.00,0.00
2017-08-14 10:00:00,0,49957,0,0.00,0,0,0,0,49570,50000,129,50000,0,0,0,0,0.00,0.00,0.00,0.00
2017-08-14 10:10:00,0,50000,0,0.00,0,0,0,0,50000,50000,0,50000,0,0,0,0,0.00,0.00,0.00,0.00
2017-08-14 10:20:00,0,49987,0,0.00,0,0,0,0,49873,50000,38,50000,0,0,0,0,0.00,0.00,0.00,0.00
2017-08-14 10:30:00,0,50000,0,0.00,0,0,0,0,50000,50000,0,50000,0,0,0,0,0.00,0.00,0.00,0.00
2017-08-14 10:40:00,0,49954,0,0.00,0,0,0,0,49540,50000,138,50000,0,0,0,0,0.00,0.00,0.00,0.00
2017-08-14 10:50:00,0,49402,0,0.00,0,0,0,0,46180,50000,1235,50000,0,0,0,0,0.00,0.00,0.00,0.00
2017-08-14 11:00:00,0,49384,0,0.00,0,0,0,0,47455,50000,875,50000,0,0,0,0,0.00,0.00,0.00,0.00
2017-08-14 11:10:00,0,49416,0,0.00,0,0,0,0,47519,50000,792,49884,0,0,0,0,0.00,0.00,0.00,0.00
2017-08-14 11:20:00,0,48598,0,0.00,0,0,0,0,45456,50000,1387,48839,0,0,0,0,0.00,0.00,0.00,0.00
2017-08-14 11:30:00,0,45956,0,0.00,0,0,0,0,39919,50000,3072,46464,0,0,0,0,0.00,0.00,0.00,0.00
2017-08-14 11:40:00,0,45200,0,0.00,0,0,0,0,35508,50000,4451,46215,0,0,0,0,0.00,0.00,0.00,0.00
2017-08-14 11:50:00,0,47384,0,0.00,0,0,0,0,40049,50000,2937,48342,0,0,0,0,0.00,0.00,0.00,0.00
2017-08-14 12:00:00,0,47392,0,0.00,0,0,0,0,40040,50000,3154,48794,0,0,0,0,0.00,0.00,0.00,0.00
2017-08-14 12:10:00,0,44316,0,0.00,0,0,0,0,41770,48347,1914,43789,0,0,0,0,0.00,0.00,0.00,0.00
2017-08-14 12:20:00,0,47827,0,0.00,0,0,0,0,41709,50000,2554,48744,0,0,0,0,0.00,0.00,0.00,0.00
2017-08-14 12:30:00,0,49377,0,0.00,0,0,0,0,43803,50000,1858,50000,0,0,0,0,0.00,0.00,0.00,0.00
2017-08-14 12:40:00,0,43454,0,0.00,0,0,0,0,36683,50000,4422,43125,0,0,0,0,0.00,0.00,0.00,0.00
2017-08-14 12:50:00,0,47374,0,0.00,0,0,0,0,45102,50000,1957,46427,0,0,0,0,0.00,0.00,0.00,0.00
2017-08-14 13:00:00,0,49266,0,0.00,0,0,0,0,46520,50000,1261,50000,0,0,0,0,0.00,0.00,0.00,0.00
2017-08-14 13:10:00,0,47268,0,0.00,0,0,0,0,44403,49884,1688,46986,0,0,0,0,0.00,0.00,0.00,0.00
2017-08-14 13:20:00,0,48201,0,0.00,0,0,0,0,45676,50000,1577,47786,0,0,0,0,0.00,0.00,0.00,0.00
2017-08-14 13:30:00,0,47927,0,0.00,0,0,0,0,41595,50000,2644,48968,0,0,0,0,0.00,0.00,0.00,0.00
2017-08-14 13:40:00,0,44603,0,0.00,0,0,0,0,41180,47614,2288,44196,0,0,0,0,0.00,0.00,0.00,0.00
2017-08-14 13:50:00,0,49498,0,0.00,0,0,0,0,48175,50000,717,50000,0,0,0,0,0.00,0.00,0.00,0.00
2017-08-14 14:00:00,0,48700,0,0.00,0,0,0,0,44034,50000,2039,49846,0,0,0,0,0.00,0.00,0.00,0.00
2017-08-14 14:10:00,0,48689,0,0.00,0,0,0,0,45162,50000,2012,50000,0,0,0,0,0.00,0.00,0.00,0.00
2017-08-14 14:20:00,0,49279,0,0.00,0,0,0,0,45198,50000,1436,50000,0,0,0,0,0.00,0.00,0.00,0.00
2017-08-14 14:30:00,0,48659,0,0.00,0,0,0,0,45013,50000,1966,50000,0,0,0,0,0.00,0.00,0.00,0.00
2017-08-14 14:40:00,0,48696,0,0.00,0,0,0,0,46217,50000,1317,49184,0,0,0,0,0.00,0.00,0.00,0.00
2017-08-14 14:50:00,0,44223,0,0.00,0,0,0,0,39235,49229,3509,44348,0,0,0,0,0.00,0.00,0.00,0.00
2017-08-14 15:00:00,0,47060,0,0.00,0,0,0,0,41038,50000,3054,47492,0,0,0,0,0.00,0.00,0.00,0.00
2017-08-14 15:10:00,0,46864,0,0.00,0,0,0,0,41168,50000,3012,47693,0,0,0,0,0.00,0.00,0.00,0.00
2017-08-14 15:20:00,0,46851,0,0.00,0,0,0,0,41402,50000,2476,47128,0,0,0,0,0.00,0.00,0.00,0.00
2017-08-14 15:30:00,0,40284,0,0.00,0,0,0,0,33779,46691,4414,39934,0,0,0,0,0.00,0.00,0.00,0.00
2017-08-14 15:40:00,0,38950,0,0.00,0,0,0,0,32441,46774,4015,38710,0,0,0,0,0.00,0.00,0.00,0.00
2017-08-14 15:50:00,0,40426,0,0.00,0,0,0,0,34818,50000,5420,38430,0,0,0,0,0.00,0.00,0.00,0.00
2017-08-14 16:00:00,0,43021,0,0.00,0,0,0,0,37732,50000,3647,43864,0,0,0,0,0.00,0.00,0.00,0.00
2017-08-14 16:10:00,0,38963,0,0.00,0,0,0,0,34784,44321,2964,38592,0,0,0,0,0.00,0.00,0.00,0.00
2017-08-14 16:20:00,0,42014,0,0.00,0,0,0,0,27692,49124,6642,44380,0,0,0,0,0.00,0.00,0.00,0.00
2017-08-14 16:30:00,0,31149,0,0.00,0,0,0,0,25775,35973,3049,31769,0,0,0,0,0.00,0.00,0.00,0.00
2017-08-14 16:40:00,0,30638,0,0.00,0,0,0,0,26557,35823,2807,30550,0,0,0,0,0.00,0.00,0.00,0.00
2017-08-14 16:50:00,0,35008,0,0.00,0,0,0,0,27144,40830,4201,35614,0,0,0,0,0.00,0.00,0.00,0.00
2017-08-14 17:00:00,0,32957,0,0.00,0,0,0,0,29197,36092,2371,33637,0,0,0,0,0.00,0.00,0.00,0.00
2017-08-14 17:10:00,0,35714,0,0.00,0,0,0,0,30888,43012,3500,34423,0,0,0,0,0.00,0.00,0.00,0.00
2017-08-14 17:20:00,0,34518,0,0.00,0,0,0,0,30305,39742,2967,34586,0,0,0,0,0.00,0.00,0.00,0.00
2017-08-14 17:30:00,0,29708,0,0.00,0,0,0,0,25749,37966,3665,28792,0,0,0,0,0.00,0.00,0.00,0.00
2017-08-14 17:40:00,0,28878,0,0.00,0,0,0,0,26951,32203,1587,28726,0,0,0,0,0.00,0.00,0.00,0.00
2017-08-14 17:50:00,0,32044,0,0.00,0,0,0,0,28469,34761,1774,32308,0,0,0,0,0.00,0.00,0.00,0.00
2017-08-14 18:00:00,0,34257,0,0.00,0,0,0,0,29822,42649,3633,33170,0,0,0,0,0.00,0.00,0.00,0.00
2017-08-14 18:10:00,0,42726,0,0.00,0,0,0,0,33846,50000,4734,42401,0,0,0,0,0.00,0.00,0.00,0.00
2017-08-14 18:20:00,0,36966,0,0.00,0,0,0,0,34864,43578,2444,36144,0,0,0,0,0.00,0.00,0.00,0.00
2017-08-14 18:30:00,0,31626,0,0.00,0,0,0,0,29444,34986,1670,31664,0,0,0,0,0.00,0.00,0.00,0.00
2017-08-14 18:40:00,0,34147,0,0.00,0,0,0,0,29923,40336,2657,34488,0,0,0,0,0.00,0.00,0.00,0.00
2017-08-14 18:50:00,0,32942,0,0.00,0,0,0,0,31278,36079,1523,32460,0,0,0,0,0.00,0.00,0.00,0.00
2017-08-14 19:00:00,0,33881,0,0.00,0,0,0,0,29038,37709,2789,34650,0,0,0,0,0.00,0.00,0.00,0.00
2017-08-14 19:10:00,0,30753,0,0.00,0,0,0,0,29239,32073,935,30866,0,0,0,0,0.00,0.00,0.00,0.00
2017-08-14 19:20:00,0,33098,0,0.00,0,0,0,0,26714,37383,2683,33988,0,0,0,0,0.00,0.00,0.00,0.00
2017-08-14 19:30:00,0,31152,0,0.00,0,0,0,0,26540,37354,3413,31502,0,0,0,0,0.00,0.00,0.00,0.00
2017-08-14 19:40:00,0,34362,0,0.00,0,0,0,0,30568,37429,1956,34578,0,0,0,0,0.00,0.00,0.00,0.00
2017-08-14 19:50:00,0,28530,0,0.00,0,0,0,0,24988,36232,3141,27279,0,0,0,0,0.00,0.00,0.00,0.00
2017-08-14 20:00:00,0,31277,0,0.00,0,0,0,0,28266,34523,2050,30588,0,0,0,0,0.00,0.00,0.00,0.00
2017-08-14 20:10:00,0,32693,0,0.00,0,0,0,0,25068,38795,3470,33179,0,0,0,0,0.00,0.00,0.00,0.00
2017-08-14 20:20:00,0,33701,0,0.00,0,0,0,0,30525,37461,2034,33714,0,0,0,0,0.00,0.00,0.00,0.00
2017-08-14 20:30:00,0,29965,0,0.00,0,0,0,0,19892,42849,6716,29580,0,0,0,0,0.00,0.00,0.00,0.00
2017-08-14 20:40:00,0,38769,22,0.03,0,0,0,0,24810,46900,6807,40810,0,61,28,0,0.00,0.25,0.08,0.00
2017-08-14 20:50:00,0,40179,0,0.00,0,0,0,0,31661,47857,4485,39688,0,0,0,0,0.00,0.00,0.00,0.00
2017-08-14 21:00:00,0,31254,0,0.00,0,0,0,0,24683,41094,5140,32074,0,0,0,0,0.00,0.00,0.00,0.00
2017-08-14 21:10:00,0,26729,0,0.00,0,0,0,0,19898,34018,4131,25982,0,0,0,0,0.00,0.00,0.00,0.00
2017-08-14 21:20:00,0,27503,0,0.00,0,0,0,0,21299,32665,3999,27729,0,0,0,0,0.00,0.00,0.00,0.00
2017-08-14 21:30:00,0,22306,0,0.00,0,0,0,0,19531,26960,2427,21448,0,0,0,0,0.00,0.00,0.00,0.00
2017-08-14 21:40:00,0,21949,0,0.00,0,0,0,0,19236,23871,1402,22200,0,0,0,0,0.00,0.00,0.00,0.00
2017-08-14 21:50:00,0,20384,0,0.00,0,0,0,0,16108,26176,2885,20862,0,0,0,0,0.00,0.00,0.00,0.00
2017-08-14 22:00:00,0,25298,0,0.00,0,0,0,0,21030,27996,1735,25332,0,0,0,0,0.00,0.00,0.00,0.00
2017-08-14 22:10:00,0,24157,0,0.00,0,0,0,0,21565,29227,2195,23824,0,0,0,0,0.00,0.00,0.00,0.00
2017-08-14 22:20:00,0,23728,0,0.00,0,0,0,0,19451,27483,2628,23902,0,0,0,0,0.00,0.00,0.00,0.00
2017-08-14 22:30:00,0,27610,0,0.00,0,0,0,0,21847,34102,4157,26957,0,0,0,0,0.00,0.00,0.00,0.00
2017-08-14 22:40:00,0,31573,0,0.00,0,0,0,0,26222,35844,3314,30861,0,0,0,0,0.00,0.00,0.00,0.00
2017-08-14 22:50:00,0,35164,0,0.00,0,0,0,0,31591,41647,2940,35120,0,0,0,0,0.00,0.00,0.00,0.00
2017-08-14 23:00:00,0,32200,0,0.00,0,0,0,0,27496,37716,2758,32064,0,0,0,0,0.00,0.00,0.00,0.00
2017-08-14 23:10:00,0,35347,0,0.00,0,0,0,0,30235,40646,2996,35796,0,0,0,0,0.00,0.00,0.00,0.00
2017-08-14 23:20:00,0,33149,0,0.00,0,0,0,0,22730,41688,5826,34306,0,0,0,0,0.00,0.00,0.00,0.00
2017-08-14 23:30:00,0,35222,0,0.00,0,0,0,0,27222,44209,6013,34546,0,0,0,0,0.00,0.00,0.00,0.00
2017-08-14 23:40:00,0,24715,0,0.00,0,0,0,0,15129,40502,8217,23051,0,0,0,0,0.00,0.00,0.00,0.00
2017-08-14 23:50:00,0,18626,0,0.00,0,0,0,0,15352,23741,2284,18180,0,0,0,0,0.00,0.00,0.00,0.00
